Tracking 19706 objects as of 16-Jun-2019
HD Live streaming from Space Station
objects crossing your sky now

ARIANE 42L R/B

Track ARIANE 42L R/B now!
10-day predictions


NORAD ID: 25586
Int'l Code: 1998-075B
Perigee: 209.8 km
Apogee: 16,901.7 km
Inclination: 7.6 °
Period: 302.5 minutes
Semi major axis: 14926 km
RCS: 21.3079 m2 (large)
Launch date: December 22, 1998
Source: France (FR)
Launch site: FRENCH GUIANA (FRGUI)

Note: This is a ROCKET BODY
aabbcc
Your satellite tracking list
Your tracking list is empty




NASA's NSSDC Master Catalog

Two Line Element Set (TLE):
1 25586U 98075B   19165.70048656 +.00030704 +00000-0 +84542-3 0  9993
2 25586 007.5556 318.4773 5591254 311.7444 012.2964 04.76052341263067
Source of the keplerian elements: AFSPC